NIMBUS 2 DEB, 31579

Orbit data source: Space-Track

NIMBUS 2 DEB, 31579 is space debris in SSO originally from a launch on Sun, 15 May 1966 UTC launched from the Air Force Western Test Range (AFWTR). Debris objects in space refer to the collection of defunct objects orbiting the Earth. Examples of debris include non-operational satellites, rocket bodies, and fragments generated from explosions, collisions, or faulty payload assembly.

Loading next visibility...
Identifier
31579, 1966-040AR
Orbit
SSO
Country
Flag of USUS
Related business
Manufacturer
Unknown
Mission
Spacecraft
Bus & Motor
Unknown
Mass
Unknown
Launch date (UTC)
1966-05-15 (60 years ago)
Launch vehicle
Unknown
Launch site
Air Force Western Test Range (AFWTR)
Object type
Payload
Rocket body
Debris
Shape & HBR
Unknown shape, 0.1 m
Radar Cross Section
Medium (>0.1 m² and <1 m²)

Expand to show TLE details & history
Last TLE update: 4 hours ago

TLE from 4 hours ago
0 NIMBUS 2 DEB
1 31579U 66040AR  26262.93675998  .00001131  00000-0  18167-2 0  9996
2 31579 100.5036 248.9635 0042469 282.6729 104.4340 13.51003674949154
Epoch: 2026-09-19T22:28Z
TLE epoch observation values (Epoch: 2026-09-19T22:28:56.062Z)
Latitude
27.11611°
Longitude
-92.52815°
Altitude
1,079.751 km
Speed
7.311 km/s
True Right ascension
16h 14m 10s
True Declination
26° 58' 58"
Sunlit
Object was in daylight at epoch
Visualization orbit readout
Latitude
Unknown
Longitude
Unknown
Altitude
Unknown
Speed
Unknown
Apparent Right ascension
Unknown
Apparent Declination
Unknown
Sunlit
N/A
Visualization observer readout
Local Sidereal Time
19:21:02
Azimuth
Unknown
Elevation
Unknown
Doppler factor
Unknown
Orbital elements
Apogee altitude
1,097.525 km
Perigee altitude
1,034.297 km
Semi-major axis
7,444.048 km
Eccentricity
0.00425
Inclination
100.5036°
RAAN
248.9635°
Arg. of periapsis
282.6729°
True anomaly
104.90467°
Mean anomaly
104.434°
Eccentric anomaly
104.6694°
Mean motion
3.37932 °/min
Orbital period
106.53 mins
BSTAR
0.0018167
Loading maneuver chart data...
Computing Atmospheric mass density...
Loading historical data...
Loading historical data...
Loading historical data...
Loading historical data...
Loading historical data...
Loading historical data...
Loading historical data...

Documentation

Showing up to 5 results
|